Regional Weather Roundup
Issued by NWS

Home | Current Version | Previous Version | Text Only | Print | Product List | Glossary On
Versions: 1 2 3 4 5 6 7 8 9 10 11 12 13 14 15 16 17 18 19 20 21 22 23 24 25 26 27 28 29 30 31 32 33 34 35 36 37 38 39 40 41 42 43 44 45 46 47 48 49 50
000
ASUS43 KMKX 261400
RWRWI

WISCONSIN REGIONAL WEATHER ROUNDUP
NATIONAL WEATHER SERVICE MILWAUKEE/SULLIVAN WI
900 AM CDT TUE JUL 26 2016

NOTE: "FAIR" INDICATES FEW OR NO CLOUDS BELOW 12,000 FEET WITH NO
SIGNIFICANT WEATHER AND/OR OBSTRUCTIONS TO VISIBILITY.

WIZ001-002-006>008-014>016-023>028-261500-
NORTHWEST WISCONSIN

CITY           SKY/WX    TMP DP  RH WIND       PRES   REMARKS
SUPERIOR ARPT  SUNNY     74  67  78 SW5       29.97F
ASHLAND        CLOUDY    75  67  76 VRB3      30.00F
HAYWARD        CLOUDY    74  65  73 SW6       30.04F
SIREN          NOT AVBL
CUMBERLAND     PTSUNNY   70  64  83 SW5       30.06F
RICE LAKE      PTSUNNY   72  67  83 SW3       30.07S
CHETEK         PTSUNNY   73  67  79 CALM      30.06S
LADYSMITH      SUNNY     73  66  77 SW7       30.08S
EAU CLAIRE     NOT AVBL
MENOMONIE      MOSUNNY   76  70  83 S6        30.06F
NEW RICHMOND   SUNNY     76  65  69 SW7       30.05F
OSCEOLA        PTSUNNY   75  67  76 SW6       30.07S
$$

WIZ003>005-009-010-017-018-261500-
NORTH CENTRAL WISCONSIN

CITY           SKY/WX    TMP DP  RH WIND       PRES   REMARKS
MANITOWISH WTR MOSUNNY   72  67  86 W3        30.06F
ARBOR VITAE    SUNNY     74  67  77 W6        30.06S
WOODRUFF       SUNNY     74  67  77 W6        30.06S
RHINELANDER    SUNNY     75  64  68 W9        30.08F
EAGLE RIVER    SUNNY     73  65  77 W6        30.06S
LAND O LAKES   SUNNY     74  65  74 W6        30.07S
PHILLIPS       MOSUNNY   72  66  83 SW5       30.07R
TOMAHAWK       SUNNY     73  65  75 CALM      30.07F
MEDFORD        SUNNY     73  69  89 SW3       30.08S
MERRILL        SUNNY     72  66  80 W3        30.08F
$$

WIZ029-030-035-036-043>047-261500-
CENTRAL WISCONSIN

CITY           SKY/WX    TMP DP  RH WIND       PRES   REMARKS
WAUSAU         SUNNY     76  64  66 VRB3      30.06F
MOSINEE        SUNNY     75  64  69 W6        30.09F
MARSHFIELD     SUNNY     77  64  64 W5        30.08S
STEVENS POINT  SUNNY     73  64  71 CALM      30.09S
WAUPACA        SUNNY     78  66  65 W3        30.08S HX  80
WAUTOMA        SUNNY     77  67  71 W3        30.08S
WISC RAPIDS    SUNNY     78  64  61 VRB3      30.09F HX  80
CAMP DOUGLAS   NOT AVBL
$$

WIZ011>013-019>022-031-037>040-048>050-261500-
NORTHEAST WISCONSIN

CITY           SKY/WX    TMP DP  RH WIND       PRES   REMARKS
ANTIGO         SUNNY     72  65  77 CALM      30.08F
SHAWANO        SUNNY     75  65  70 W3        30.06F
OCONTO         SUNNY     74  69  82 W5        30.04S
STURGEON BAY   SUNNY     77  67  71 W7        30.05F
GREEN BAY      SUNNY     76  69  79 W5        30.06S
MANITOWOC      NOT AVBL
APPLETON       MOSUNNY   73  63  68 CALM      30.06S
CLINTONVILLE   SUNNY     73  63  68 NW5       30.06F
OSHKOSH        SUNNY     75  65  70 CALM      30.07S
$$

WIZ032>034-041-042-053>061-261500-
SOUTHWEST WISCONSIN

CITY           SKY/WX    TMP DP  RH WIND       PRES   REMARKS
LA CROSSE      SUNNY     74  68  81 VRB5      30.08S
SPARTA         SUNNY     69  65  85 CALM      30.09S
VIROQUA        SUNNY     73  67  82 CALM      30.10S
BOSCOBEL       MOSUNNY   69  67  93 CALM      30.09S
PRAIRIE DU CHI FOG       68  66  96 CALM      30.09R VSB<1/4
PLATTEVILLE    SUNNY     73  69  85 CALM      30.09F
$$

WIZ056-057-062-063-064-067-068-261500-
SOUTH CENTRAL WISCONSIN

CITY           SKY/WX    TMP DP  RH WIND       PRES   REMARKS
REEDSBURG      SUNNY     71  67  86 CALM      30.09S
BARABOO/DELLS  SUNNY     73  66  76 CALM      30.09S
LONE ROCK      FOG       68  66  94 CALM      30.09S VSB 1
MINERAL POINT  SUNNY     77  68  73 CALM      30.09F
MADISON        SUNNY     77  67  71 CALM      30.08S
MIDDLETON      SUNNY     76  67  74 CALM      30.09F
WATERTOWN      SUNNY     74  66  77 CALM      30.08S
MONROE         SUNNY     75  63  64 NE3       30.09S
JANESVILLE     SUNNY     79  64  61 N7        30.07F HX  81
$$

WIZ051-052-058>065-066-070>072-261500-
SOUTHEAST WISCONSIN

CITY           SKY/WX    TMP DP  RH WIND       PRES   REMARKS
MILWAUKEE      MOSUNNY   81  61  50 NE7       30.07S HX  82
WAUKESHA       SUNNY     73  63  68 CALM      30.10R
MILWAUKEE/TIMM SUNNY     79  59  50 CALM      30.08S HX  80
RACINE         SUNNY     80  64  58 NE5       30.08S HX  82
BURLINGTON     SUNNY     75  66  72 CALM      30.07F
KENOSHA        SUNNY     78  66  66 NW3       30.07F HX  80
FOND DU LAC    SUNNY     76  66  71 CALM      30.08S
SHEBOYGAN      SUNNY     78  65  63 NW5       30.07S HX  80
WEST BEND      SUNNY     73  63  68 CALM      30.08S
JUNEAU         SUNNY     71  66  82 CALM      30.10S
$$

LSZ147-162-261500-
LAKE SUPERIOR

STATION/POSITION TIME  TEMP    WIND        PRES    WAVE
                       AIR SEA DIR/SP/G            HT/PER
                 (UTC) (F)     (DEG/KT/KT) (MB)    (FT/S)
W MID LAKE BUOY  1250   62 60  280/  6/  8 1015.0R   1
DEVILS ISLAND    1300   70     190/  3/  4 1015.3F
SAXON HARBOR     1340   74      80/  2/  5 1015.9S
$$

LMZ867-665-643>646-261500-
LAKE MICHIGAN

STATION/POSITION TIME  TEMP    WIND        PRES    WAVE
                       AIR SEA DIR/SP/G            HT/PER
                 (UTC) (F)     (DEG/KT/KT) (MB)    (FT/S)
CHAMBERS ISLAND  1300   75     210/  2/  6 1016.9S
S GREEN BAY BUOY 1300   72 73  260/  6/  8   N/A
N MID LAKE BUOY  1250   70 69  230/  4/  4 1016.3R   1
NORTHPORT PIER   1300   75     260/  4/  8 1016.9R
SISTER BAY       1321   82     270/  7/  8   N/A
ALGOMA LAKESHORE 1313             CALM       N/A
KEWAUNEE LAKESHO 1300   73     310/  3/  6 1017.2R
SHEBOYGAN LAKESH 1300   74     300/  5/  6 1018.1R
PORT WASHINGTON  1340   80     330/  4/  8 1018.6S
ATWATER BUOY     1300   66 57  130/  2/  2 1019.8R
MILWAUKEE LAKESH 1310   74     150/  1/  1   N/A
S MID LAKE BUOY  1250   73 73  290/  4/  4 1017.3R
KENOSHA   LAKESH 1300   75     330/  2/  3 1017.9S
$$

TC  - TEMPERATURE IN CELSIUS
VSB - VISIBILITY IN STATUTE MILES
WCI - WIND CHILL INDEX
HX  - HEAT INDEX





USA.gov is the U.S. government's official web portal to all federal, state and local government web resources and services.